Wind_Speed
6 5 6 6 6 6 5 5 5 5 4 4 4 4 4 4 4 3 3 3 3 2 2 2 2 2 2 2 2 2 3 3 3 4 4 3 3 3 3 4 5 6 6
6 5 5 5 5 4 4 4 4 4 4 3 3 3 3 3 3 2 2 2 1 1 1 2 2 2 2 2 3 3 3 3 4 4 4 4 4 4 4 4 5 5 6
6 4 5 4 4 3 4 3 3 2 3 2 2 2 2 2 2 1 1 1 1 1 1 2 3 3 3 3 3 4 4 4 5 5 5 5 5 5 5 5 6 6 7
6 5 4 4 3 3 3 2 1 1 1 1 1 1 1 1 1 1 2 2 3 3 3 4 4 4 4 4 5 5 5 5 5 5 5 6 7 7 7 7 7 7 8
8 7 6 5 4 3 3 2 2 1 1 1 1 1 2 2 2 2 3 3 4 4 4 5 6 6 6 6 6 6 6 6 6 7 7 7 7 8 9 9 9 9 9
9 9 8 7 6 5 4 4 4 3 3 3 3 3 4 4 4 4 4 4 5 5 6 7 7 8 8 8 8 8 8 8 8 8 8 8 9 9 10 10 10 10 11
10 10 9 9 9 8 7 7 6 6 5 5 5 6 6 6 6 6 6 6 6 7 7 8 9 9 10 10 10 10 10 9 9 10 10 11 11 11 11 10 10 11 12
10 9 10 11 11 11 10 10 9 8 8 8 8 8 8 8 8 8 8 8 8 9 9 10 10 11 11 11 11 11 11 12 12 12 12 12 13 13 12 11 12 13 13
11 10 10 11 12 12 12 11 11 11 10 10 10 10 10 10 10 10 10 11 11 11 11 12 13 13 13 13 13 13 13 14 14 14 13 13 13 13 13 13 13 13 14
13 13 12 12 12 13 13 13 13 12 12 12 12 12 11 12 12 13 13 13 13 13 13 14 15 15 15 15 15 14 14 14 14 14 14 15 15 14 14 14 14 15 15
16 15 14 14 15 15 15 15 14 14 14 14 14 14 14 14 15 15 16 16 16 16 16 17 16 16 17 17 17 16 16 16 16 16 16 17 17 17 17 17 18 18 18
18 18 17 17 17 16 17 17 17 17 17 17 18 18 18 18 18 18 18 19 19 19 19 19 19 18 19 19 19 18 18 18 18 18 18 19 19 18 18 19 20 20 21
20 20 20 20 19 19 19 19 19 19 20 20 20 21 21 21 21 21 22 22 22 22 22 22 22 22 21 21 20 19 19 20 20 19 19 19 19 19 19 20 21 22 23
23 23 22 22 22 22 21 22 22 22 23 22 23 24 24 24 24 24 24 24 24 24 24 24 24 24 23 22 22 21 21 21 21 21 21 21 21 22 22 23 24 24 25
25 24 24 24 25 26 25 25 25 26 26 25 26 26 26 27 26 26 26 26 26 26 26 26 25 25 24 24 23 23 23 22 22 23 23 24 24 25 26 26 27 27 27
27 26 26 28 28 28 28 28 28 28 28 28 28 27 27 28 27 27 27 27 27 28 28 27 26 26 25 25 24 25 25 25 25 25 25 26 26 27 28 28 29 28 29
31 29 29 30 30 30 30 30 31 31 31 30 30 30 29 30 29 29 29 28 28 28 28 28 27 27 27 27 26 27 27 27 27 27 27 28 28 29 29 30 30 29 29
32 32 31 30 31 32 33 34 34 34 34 33 33 32 31 31 30 30 30 30 30 30 29 29 29 29 29 29 28 28 28 28 29 29 29 29 29 29 30 30 30 30 30
35 35 34 34 34 35 35 35 36 37 37 35 34 33 32 32 32 32 32 32 33 32 32 32 31 31 31 31 30 30 30 30 30 30 30 29 30 30 31 31 31 31 31
37 38 38 37 37 37 36 36 37 38 36 34 35 36 35 34 33 34 34 34 34 34 33 33 33 32 32 32 32 33 33 32 32 32 32 32 32 32 32 32 32 32 32
39 39 40 40 39 38 38 38 38 38 37 36 36 35 35 33 33 34 34 33 34 34 34 35 35 34 34 34 34 34 34 33 34 34 32 32 33 33 33 33 33 33 33
41 40 41 40 39 38 38 38 39 38 37 37 36 36 36 34 34 34 35 35 35 35 36 36 37 37 36 36 36 35 34 34 34 34 34 33 33 33 34 34 33 33 34
40 40 41 39 38 39 38 38 38 39 38 37 37 37 37 36 36 36 37 36 36 36 37 37 36 36 36 36 35 35 35 34 34 34 34 34 34 34 35 35 35 34 35
40 41 41 39 38 38 38 38 38 38 37 37 37 36 36 36 36 37 37 38 37 36 36 35 35 35 35 35 34 34 35 35 35 35 34 34 34 34 34 35 35 35 35
40 40 40 39 38 37 37 38 38 37 37 37 38 37 36 35 35 36 36 36 36 36 36 35 34 33 33 33 34 35 34 34 34 34 34 34 35 35 35 35 35 35 35
38 38 38 38 38 37 37 37 37 38 37 37 37 37 36 35 35 35 35 35 35 35 35 34 33 33 33 33 34 34 34 34 34 34 34 34 35 35 35 34 34 34 34
Wind_Direction
5 24 30 34 32 34 42 55 63 69 87 106 111 114 119 128 132 129 124 112 102 90 66 51 28 360 355 345 332 315 299 299 305 310 310 309 317 316 295 290 289 283 280
352 14 25 29 28 30 38 56 69 72 82 94 104 114 132 142 140 132 127 131 129 89 31 16 352 334 339 341 337 328 311 297 296 294 294 299 306 306 299 297 298 297 297
343 357 10 15 14 18 24 38 62 84 93 95 100 100 114 134 147 158 159 183 251 289 308 322 333 330 313 308 304 304 308 312 302 293 289 290 295 303 293 288 289 290 293
334 339 345 353 355 2 5 6 27 71 103 111 114 123 141 173 197 226 245 261 276 285 292 304 311 316 314 300 294 291 294 298 302 297 293 289 292 291 287 285 285 285 287
316 313 319 326 326 325 326 322 308 290 263 232 243 237 245 252 252 258 259 265 279 284 289 297 301 302 305 302 293 289 290 294 296 296 294 291 289 288 286 284 286 286 284
308 304 299 302 298 290 289 293 288 277 271 265 262 257 257 260 255 263 265 267 279 286 290 292 295 298 298 298 293 287 286 285 285 287 288 291 289 289 290 287 287 288 285
297 298 288 283 283 278 278 279 275 273 273 269 266 266 265 260 259 265 270 274 280 285 287 289 290 294 296 295 291 283 280 281 285 286 286 287 287 289 291 292 290 290 289
284 290 282 272 272 273 272 272 270 270 269 269 268 266 262 262 262 265 267 271 274 276 278 282 286 288 291 293 289 283 281 281 282 284 285 285 285 285 288 289 290 289 288
276 278 278 275 269 272 274 275 271 268 266 265 265 263 262 261 261 264 267 268 270 275 277 279 281 284 286 289 289 286 284 284 283 283 284 285 285 284 285 287 288 290 289
269 272 271 270 271 272 275 274 270 267 266 265 265 265 263 264 262 263 266 268 271 275 278 278 280 281 282 285 287 287 284 286 286 285 284 284 282 283 283 284 284 286 288
269 272 268 266 267 267 269 272 272 270 268 267 265 264 264 264 263 263 266 268 271 275 277 277 279 282 285 282 283 284 285 284 284 283 283 285 282 281 280 281 283 284 283
273 273 272 268 267 268 268 268 271 270 270 268 266 266 265 266 265 265 266 268 271 274 277 278 278 281 283 285 284 283 284 284 284 286 283 283 282 282 282 282 283 283 283
272 272 272 270 266 267 268 268 270 271 272 271 270 268 268 268 267 267 267 269 272 273 274 276 276 278 278 280 283 284 285 284 284 286 286 285 282 281 282 284 284 283 283
272 272 271 270 267 267 268 268 269 271 272 273 272 271 271 269 267 268 269 269 270 272 272 274 274 274 275 276 278 282 285 285 284 283 284 283 282 283 283 285 284 283 282
272 272 270 270 268 268 269 268 269 270 271 270 271 271 271 270 268 269 269 269 269 270 271 272 273 275 276 275 276 279 282 284 284 282 282 282 282 283 283 284 283 283 282
269 271 270 270 269 269 270 271 271 270 270 270 271 268 269 270 268 268 267 268 270 270 270 270 272 275 276 276 277 278 280 281 282 280 280 280 281 282 283 283 283 282 281
268 268 270 272 269 268 269 271 270 271 271 271 272 270 267 268 267 267 266 267 268 270 270 271 272 273 275 275 276 277 278 280 281 280 279 279 281 283 282 282 281 281 281
273 272 270 272 270 269 270 272 273 272 272 271 272 270 268 267 267 268 267 267 267 267 268 270 272 272 272 274 275 275 276 279 280 280 280 279 281 282 283 281 280 280 280
273 274 275 275 274 274 275 275 275 273 272 270 269 269 269 266 266 267 267 268 268 267 268 270 270 271 271 272 274 275 276 277 279 280 279 279 280 281 282 282 281 280 280
274 274 273 275 276 274 275 274 275 274 272 270 269 270 272 268 265 265 265 267 267 266 267 268 268 271 273 274 275 276 275 275 277 278 278 278 279 280 282 283 282 280 281
274 273 271 273 276 275 274 274 274 275 273 270 270 270 269 267 266 266 265 265 266 266 266 267 270 271 272 272 273 274 273 274 276 276 277 279 280 280 281 282 282 281 280
273 274 273 273 275 275 274 274 273 274 272 271 269 268 269 267 268 267 268 267 267 267 267 267 269 270 271 271 272 271 272 273 274 275 277 278 279 280 281 282 281 281 281
271 272 272 273 275 275 274 273 272 272 271 270 269 269 268 268 270 269 270 272 271 268 269 268 268 269 270 270 269 270 271 272 273 274 275 278 279 280 282 282 282 281 280
269 270 270 272 274 273 272 272 272 273 271 269 268 268 268 270 271 271 272 272 272 272 272 272 269 269 269 269 270 272 271 271 273 274 275 277 279 280 281 282 281 281 281
270 271 271 271 271 272 271 271 271 271 270 269 268 267 268 269 270 272 273 274 273 273 273 274 272 270 271 269 271 272 271 272 273 274 276 278 279 280 281 281 280 280 281
269 269 270 270 270 269 270 270 270 271 271 270 268 268 269 271 272 273 273 274 274 273 273 273 275 272 272 272 272 271 271 272 273 275 277 277 279 280 280 280 280 280 281
Height
5913 5912 5911 5911 5910 5910 5909 5909 5908 5908 5908 5909 5909 5910 5910 5911 5911 5912 5912 5912 5912 5912 5912 5912 5911 5911 5910 5909 5908 5908 5907 5907 5906 5905 5904 5904 5903 5903 5902 5902 5901 5900 5900
5913 5912 5911 5910 5910 5910 5909 5909 5909 5909 5909 5909 5909 5910 5910 5911 5911 5911 5912 5912 5912 5912 5911 5911 5910 5910 5909 5908 5907 5907 5906 5905 5904 5904 5903 5903 5903 5901 5901 5900 5900 5899 5898
5912 5912 5911 5910 5910 5909 5909 5909 5909 5909 5909 5909 5909 5909 5910 5910 5911 5911 5911 5911 5911 5911 5911 5910 5909 5909 5908 5907 5906 5906 5905 5904 5903 5902 5902 5901 5901 5900 5900 5899 5898 5897 5897
5911 5911 5910 5909 5909 5909 5909 5909 5909 5909 5908 5909 5909 5909 5909 5910 5910 5910 5910 5910 5910 5910 5909 5909 5908 5907 5906 5906 5905 5904 5903 5903 5902 5901 5900 5900 5899 5899 5898 5898 5897 5896 5895
5909 5909 5909 5909 5909 5908 5908 5908 5908 5908 5908 5908 5908 5909 5909 5908 5908 5908 5908 5908 5908 5908 5908 5907 5906 5906 5905 5904 5903 5902 5901 5901 5900 5899 5899 5898 5897 5897 5896 5895 5894 5893 5893
5906 5907 5907 5907 5907 5907 5907 5907 5907 5907 5907 5907 5907 5907 5907 5907 5907 5907 5907 5907 5906 5906 5906 5905 5905 5904 5903 5902 5901 5900 5899 5899 5898 5897 5896 5896 5895 5894 5894 5892 5892 5891 5890
5903 5904 5904 5905 5905 5905 5905 5905 5905 5905 5905 5905 5905 5905 5905 5905 5905 5905 5905 5904 5904 5904 5903 5903 5902 5901 5900 5899 5898 5897 5896 5896 5895 5894 5893 5893 5892 5891 5891 5890 5889 5888 5887
5900 5901 5901 5902 5902 5902 5903 5903 5903 5903 5902 5902 5902 5902 5903 5903 5903 5902 5902 5902 5901 5901 5900 5900 5899 5898 5897 5895 5894 5893 5893 5892 5892 5891 5890 5889 5888 5888 5887 5887 5886 5885 5884
5897 5898 5898 5898 5899 5899 5899 5899 5899 5899 5899 5899 5899 5899 5899 5899 5899 5899 5898 5898 5898 5897 5897 5896 5895 5894 5893 5892 5891 5890 5889 5888 5887 5887 5886 5885 5884 5884 5883 5882 5882 5881 5880
5894 5894 5895 5895 5895 5895 5895 5895 5895 5895 5895 5895 5896 5896 5895 5895 5895 5895 5894 5894 5893 5893 5892 5892 5891 5889 5888 5887 5886 5885 5884 5883 5883 5882 5881 5880 5880 5879 5878 5878 5877 5877 5876
5889 5890 5890 5891 5891 5891 5891 5891 5891 5891 5891 5891 5891 5891 5891 5890 5890 5890 5889 5889 5888 5888 5887 5886 5885 5884 5883 5883 5882 5881 5880 5879 5878 5877 5876 5876 5875 5874 5874 5873 5872 5871 5871
5884 5884 5885 5885 5886 5886 5886 5886 5886 5886 5886 5886 5886 5885 5885 5885 5885 5884 5884 5883 5883 5882 5881 5880 5879 5879 5878 5877 5877 5876 5875 5873 5873 5872 5871 5870 5869 5869 5868 5867 5866 5865 5864
5878 5879 5879 5880 5880 5880 5880 5881 5881 5881 5880 5880 5880 5879 5878 5878 5879 5878 5878 5877 5877 5876 5875 5875 5874 5873 5872 5871 5871 5870 5869 5868 5867 5866 5865 5864 5863 5863 5862 5861 5860 5859 5858
5872 5873 5873 5873 5874 5874 5874 5875 5875 5874 5874 5873 5873 5873 5872 5872 5872 5871 5871 5871 5870 5870 5869 5868 5867 5867 5866 5865 5864 5864 5863 5862 5861 5860 5860 5858 5857 5856 5855 5854 5853 5852 5851
5865 5866 5866 5866 5867 5867 5867 5867 5868 5868 5867 5866 5866 5865 5865 5864 5864 5864 5863 5863 5863 5862 5862 5861 5860 5859 5859 5859 5858 5857 5856 5855 5855 5854 5853 5852 5850 5849 5848 5847 5846 5845 5843
5859 5859 5859 5859 5858 5859 5859 5859 5859 5859 5858 5858 5857 5857 5857 5857 5856 5856 5856 5855 5855 5854 5853 5853 5852 5852 5852 5851 5851 5850 5849 5848 5847 5847 5845 5844 5843 5842 5840 5839 5838 5837 5835
5850 5851 5851 5850 5849 5849 5850 5850 5850 5849 5848 5848 5848 5848 5848 5848 5848 5847 5847 5846 5846 5846 5846 5845 5845 5845 5844 5843 5843 5842 5841 5840 5839 5838 5837 5836 5835 5833 5832 5830 5829 5828 5826
5841 5841 5842 5841 5841 5840 5840 5839 5839 5839 5838 5838 5838 5837 5837 5837 5837 5837 5838 5837 5837 5837 5836 5836 5836 5836 5835 5835 5834 5834 5833 5832 5831 5830 5828 5827 5826 5824 5823 5821 5820 5819 5818
5832 5832 5832 5832 5832 5831 5831 5830 5829 5828 5827 5827 5827 5826 5826 5827 5827 5828 5828 5827 5827 5826 5826 5826 5826 5826 5826 5826 5825 5825 5824 5823 5822 5821 5820 5818 5817 5815 5813 5812 5811 5810 5809
5822 5822 5822 5822 5822 5821 5821 5820 5819 5818 5817 5817 5817 5816 5817 5817 5818 5818 5818 5817 5816 5815 5816 5816 5816 5816 5816 5816 5815 5815 5814 5813 5812 5811 5810 5809 5807 5806 5804 5803 5801 5800 5799
5812 5811 5811 5811 5811 5811 5810 5810 5809 5808 5808 5808 5807 5807 5807 5806 5807 5807 5807 5807 5807 5806 5807 5806 5806 5806 5806 5805 5805 5804 5804 5803 5802 5801 5800 5799 5797 5796 5794 5793 5791 5790 5789
5801 5800 5800 5800 5800 5799 5799 5799 5799 5798 5798 5797 5797 5797 5797 5796 5795 5796 5797 5797 5797 5796 5796 5796 5795 5795 5794 5794 5793 5793 5793 5792 5792 5791 5791 5789 5788 5786 5784 5783 5781 5780 5778
5789 5789 5788 5788 5788 5787 5788 5788 5788 5787 5787 5787 5787 5786 5786 5786 5786 5786 5786 5786 5785 5785 5784 5784 5784 5784 5783 5782 5782 5782 5782 5782 5781 5781 5780 5779 5777 5776 5774 5772 5771 5769 5767
5777 5777 5776 5775 5775 5774 5775 5776 5776 5776 5776 5776 5775 5775 5775 5775 5774 5774 5775 5775 5775 5774 5773 5773 5773 5773 5773 5772 5772 5771 5771 5771 5770 5770 5769 5768 5766 5765 5764 5762 5760 5759 5757
5766 5765 5763 5763 5763 5763 5764 5764 5764 5764 5764 5764 5764 5764 5764 5764 5764 5764 5764 5763 5763 5763 5763 5762 5761 5762 5762 5761 5761 5760 5760 5759 5759 5758 5757 5757 5756 5754 5753 5751 5750 5748 5746
5753 5753 5753 5752 5752 5752 5753 5753 5753 5753 5753 5753 5753 5753 5753 5753 5753 5753 5753 5753 5752 5752 5752 5752 5751 5751 5750 5750 5749 5749 5749 5748 5747 5747 5746 5746 5745 5743 5742 5740 5738 5737 5735